Location: Cassano d�Adda
(45.5333°N, 9.5167°E)
Time: 08:27:42
(UTC+00:00)

Cosmos 1553 Rocket - Pass Details

Date: 08 December 2019
Orbit: 942 x 1007 km, 82.9° (Epoch: 20 January)

Event Time Altitude Azimuth Distance (km) Brightness Sun altitude
Rises 18:33:35 0° 348° (NNW) 3,713 7.1 -29.7°
Reaches altitude 10° 18:36:07 10° 346° (NNW) 2,768 6.5 -30.2°
Maximum altitude 18:42:24 65° 267° (W) 1,101 4.3 -31.3°
Drops below altitude 10° 18:48:42 10° 187° (S) 2,775 6.4 -32.4°
Sets 18:51:15 0° 184° (S) 3,722 7.1 -32.8°
